When you browse on this site, cookies collect data to enhance your experience and personalize the content and advertising you see.
Visit our Privacy Policy to learn more. By continuing to use the site, you agree to this use of cookies and data.
  • In Portugal
  • List of Countries
  • For 7 days
  • Water Temperature
  • Satellite Maps
  • Weather Map
  • Weather Widgets
  • user-avatar
    Login

    Hourly Weather Dovsk

    Today, 24 April, Wednesday

    Time Temperature Precipitation Wind Pressure Humidity
    00:00 +12°C° 0 mm 1 mps 756 mmHg 56%
    01:00 +11°C° 0 mm 1 mps 756 mmHg 57%
    02:00 +11°C° 0 mm 1 mps 756 mmHg 59%
    03:00 +10°C° 0 mm 1 mps 756 mmHg 60%
    04:00 +10°C° 0 mm 1 mps 756 mmHg 61%
    05:00 +10°C° 0 mm 1 mps 756 mmHg 63%
    06:00 +12°C° 0 mm 1 mps 756 mmHg 58%
    07:00 +14°C° 0 mm 1 mps 757 mmHg 54%
    08:00 +16°C° 0 mm 2 mps 757 mmHg 50%
    09:00 +17°C° 0 mm 2 mps 757 mmHg 45%
    10:00 +19°C° 0 mm 2 mps 757 mmHg 39%
    11:00 +20°C° 0 mm 2 mps 757 mmHg 34%
    12:00 +21°C° 0 mm 3 mps 756 mmHg 33%
    13:00 +21°C° 0 mm 3 mps 756 mmHg 32%
    14:00 +22°C° 0 mm 3 mps 756 mmHg 30%
    15:00 +21°C° 0 mm 3 mps 756 mmHg 32%
    16:00 +21°C° 0 mm 3 mps 755 mmHg 33%
    17:00 +21°C° 0 mm 2 mps 755 mmHg 35%
    18:00 +19°C° 0 mm 2 mps 755 mmHg 39%
    19:00 +17°C° 0 mm 2 mps 755 mmHg 44%
    20:00 +15°C° 0 mm 2 mps 755 mmHg 49%
    21:00 +14°C° 0 mm 2 mps 755 mmHg 50%
    22:00 +14°C° 0 mm 2 mps 755 mmHg 52%
    23:00 +13°C° 0 mm 2 mps 755 mmHg 53%

    Tomorrow, 25 April, Thursday

    Time Temperature Precipitation Wind Pressure Humidity
    00:00 +12°C° 0 mm 1 mps 755 mmHg 54%
    01:00 +12°C° 0 mm 1 mps 755 mmHg 55%
    02:00 +11°C° 0 mm 1 mps 755 mmHg 55%
    03:00 +11°C° 0 mm 1 mps 755 mmHg 56%
    04:00 +11°C° 0 mm 1 mps 755 mmHg 57%
    05:00 +11°C° 0 mm 1 mps 755 mmHg 58%
    06:00 +13°C° 0 mm 1 mps 755 mmHg 54%
    07:00 +15°C° 0 mm 1 mps 755 mmHg 50%
    08:00 +17°C° 0 mm 2 mps 755 mmHg 46%
    09:00 +18°C° 0 mm 2 mps 755 mmHg 42%
    10:00 +19°C° 0 mm 3 mps 755 mmHg 38%
    11:00 +21°C° 0 mm 4 mps 755 mmHg 34%
    12:00 +21°C° 0 mm 4 mps 754 mmHg 33%
    13:00 +22°C° 0 mm 4 mps 754 mmHg 32%
    14:00 +22°C° 0 mm 4 mps 754 mmHg 31%
    15:00 +22°C° 0 mm 4 mps 753 mmHg 33%
    16:00 +21°C° 0 mm 3 mps 753 mmHg 35%
    17:00 +21°C° 0 mm 3 mps 753 mmHg 36%
    18:00 +19°C° 0 mm 3 mps 753 mmHg 41%
    19:00 +17°C° 0 mm 3 mps 752 mmHg 46%
    20:00 +15°C° 0 mm 2 mps 752 mmHg 51%
    21:00 +15°C° 0 mm 2 mps 752 mmHg 53%
    22:00 +14°C° 0 mm 2 mps 753 mmHg 55%
    23:00 +13°C° 0 mm 2 mps 753 mmHg 58%

    Day after tomorrow, 26 April, Friday

    Time Temperature Precipitation Wind Pressure Humidity
    00:00 +13°C° 0 mm 2 mps 752 mmHg 59%
    01:00 +12°C° 0 mm 2 mps 752 mmHg 61%
    02:00 +12°C° 0 mm 2 mps 752 mmHg 63%
    03:00 +10°C° 0 mm 2 mps 752 mmHg 65%
    04:00 +10°C° 0 mm 2 mps 752 mmHg 67%
    05:00 +10°C° 0 mm 2 mps 752 mmHg 68%
    06:00 +12°C° 0 mm 3 mps 752 mmHg 64%
    07:00 +14°C° 0 mm 3 mps 751 mmHg 59%
    08:00 +16°C° 0 mm 3 mps 751 mmHg 55%
    09:00 +18°C° 0 mm 4 mps 751 mmHg 49%
    10:00 +19°C° 0 mm 5 mps 751 mmHg 44%
    11:00 +21°C° 0 mm 6 mps 751 mmHg 38%
    12:00 +21°C° 0 mm 6 mps 750 mmHg 38%
    13:00 +22°C° 0 mm 6 mps 750 mmHg 38%
    14:00 +22°C° 0 mm 6 mps 750 mmHg 37%
    15:00 +22°C° 0 mm 5 mps 749 mmHg 39%
    16:00 +22°C° 0 mm 5 mps 749 mmHg 40%
    17:00 +21°C° 0 mm 5 mps 748 mmHg 41%
    18:00 +19°C° 0 mm 4 mps 748 mmHg 46%
    19:00 +17°C° 0 mm 4 mps 748 mmHg 51%
    20:00 +14°C° 0 mm 3 mps 748 mmHg 55%
    21:00 +14°C° 0 mm 3 mps 748 mmHg 55%
    22:00 +13°C° 0 mm 3 mps 748 mmHg 55%
    23:00 +12°C° 0 mm 3 mps 748 mmHg 54%

    27 April, Saturday

    Time Temperature Precipitation Wind Pressure Humidity
    00:00 +12°C° 0 mm 3 mps 747 mmHg 56%
    01:00 +11°C° 0 mm 3 mps 747 mmHg 57%
    02:00 +11°C° 0 mm 3 mps 747 mmHg 59%
    03:00 +11°C° 0 mm 3 mps 746 mmHg 60%
    04:00 +11°C° 0 mm 3 mps 746 mmHg 61%
    05:00 +11°C° 0 mm 3 mps 746 mmHg 63%
    06:00 +12°C° 0 mm 4 mps 746 mmHg 63%
    07:00 +13°C° 0 mm 4 mps 745 mmHg 62%
    08:00 +15°C° 0 mm 4 mps 745 mmHg 62%
    09:00 +16°C° 0 mm 5 mps 745 mmHg 58%
    10:00 +19°C° 0 mm 5 mps 745 mmHg 54%
    11:00 +21°C° 0 mm 6 mps 745 mmHg 49%
    12:00 +21°C° 0 mm 6 mps 744 mmHg 47%
    13:00 +22°C° 0 mm 5 mps 744 mmHg 45%
    14:00 +23°C° 0 mm 5 mps 743 mmHg 44%
    15:00 +23°C° 0 mm 5 mps 743 mmHg 46%
    16:00 +23°C° 0 mm 4 mps 743 mmHg 48%
    17:00 +23°C° 0 mm 4 mps 742 mmHg 51%
    18:00 +21°C° 0.5 mm 3 mps 742 mmHg 59%
    19:00 +19°C° 0.5 mm 2 mps 742 mmHg 67%
    20:00 +17°C° 0.5 mm 2 mps 742 mmHg 75%
    21:00 +17°C° 0 mm 2 mps 742 mmHg 79%
    22:00 +16°C° 0 mm 1 mps 742 mmHg 83%
    23:00 +15°C° 0 mm 1 mps 742 mmHg 87%

    28 April, Sunday

    Time Temperature Precipitation Wind Pressure Humidity
    00:00 +15°C° 0.4 mm 1 mps 742 mmHg 89%
    01:00 +15°C° 0.4 mm 1 mps 742 mmHg 91%
    02:00 +14°C° 0.4 mm 1 mps 742 mmHg 93%
    03:00 +14°C° 0 mm 1 mps 742 mmHg 94%
    04:00 +14°C° 0 mm 1 mps 742 mmHg 94%
    05:00 +12°C° 0 mm 0 mps 742 mmHg 94%
    06:00 +15°C° 0 mm 1 mps 742 mmHg 89%
    07:00 +16°C° 0 mm 2 mps 743 mmHg 84%
    08:00 +18°C° 0 mm 2 mps 743 mmHg 79%
    09:00 +19°C° 0.2 mm 3 mps 743 mmHg 74%
    10:00 +20°C° 0.2 mm 3 mps 743 mmHg 68%
    11:00 +22°C° 0.2 mm 3 mps 743 mmHg 63%
    12:00 +22°C° 0.7 mm 4 mps 743 mmHg 62%
    13:00 +22°C° 0.7 mm 4 mps 743 mmHg 61%
    14:00 +22°C° 0.7 mm 4 mps 743 mmHg 60%
    15:00 +22°C° 0.4 mm 4 mps 744 mmHg 61%
    16:00 +21°C° 0.4 mm 5 mps 744 mmHg 63%
    17:00 +21°C° 0.4 mm 5 mps 744 mmHg 64%
    18:00 +19°C° 0 mm 5 mps 744 mmHg 70%
    19:00 +18°C° 0 mm 4 mps 745 mmHg 75%
    20:00 +15°C° 0 mm 4 mps 745 mmHg 80%
    21:00 +14°C° 0 mm 4 mps 746 mmHg 82%
    22:00 +13°C° 0 mm 5 mps 746 mmHg 85%
    23:00 +13°C° 0 mm 5 mps 746 mmHg 87%

    29 April, Monday

    Time Temperature Precipitation Wind Pressure Humidity
    00:00 +12°C° 0 mm 5 mps 747 mmHg 86%
    01:00 +10°C° 0 mm 5 mps 747 mmHg 86%
    02:00 +10°C° 0 mm 5 mps 747 mmHg 86%
    03:00 +9°C° 0 mm 5 mps 747 mmHg 84%
    04:00 +8°C° 0 mm 5 mps 747 mmHg 82%
    05:00 +8°C° 0 mm 5 mps 748 mmHg 80%
    06:00 +9°C° 0 mm 5 mps 748 mmHg 75%
    07:00 +9°C° 0 mm 6 mps 748 mmHg 71%
    08:00 +10°C° 0 mm 6 mps 749 mmHg 66%
    09:00 +11°C° 0 mm 6 mps 749 mmHg 63%
    10:00 +14°C° 0 mm 6 mps 749 mmHg 59%
    11:00 +15°C° 0 mm 7 mps 749 mmHg 56%
    12:00 +16°C° 0 mm 6 mps 749 mmHg 55%
    13:00 +16°C° 0 mm 6 mps 749 mmHg 53%
    14:00 +16°C° 0 mm 6 mps 749 mmHg 52%
    15:00 +16°C° 0 mm 6 mps 749 mmHg 52%
    16:00 +16°C° 0 mm 5 mps 749 mmHg 53%
    17:00 +15°C° 0 mm 5 mps 749 mmHg 53%
    18:00 +14°C° 0 mm 5 mps 749 mmHg 55%
    19:00 +13°C° 0 mm 4 mps 749 mmHg 57%
    20:00 +12°C° 0 mm 4 mps 750 mmHg 60%
    21:00 +11°C° 0 mm 4 mps 750 mmHg 60%
    22:00 +10°C° 0 mm 4 mps 750 mmHg 61%
    23:00 +8°C° 0 mm 5 mps 750 mmHg 62%
    Show more